| time (UTC) | temp F | wind direction | speed knots | gust knots | rain 1hr in | rain 24hr in | rain mn in | humidity % | barometer mb |
| 20260504150932 | 41 | 321 | 0.0 | 0.0 | 0.06 | 0.09 | 0.10 | 87 | 1004.1 |
| 20260504140924 | 41 | 321 | 0.0 | 0.0 | 0.04 | 0.04 | 0.04 | 81 | 1003.9 |
| 20260504080855 | 34 | 321 | 0.0 | 1.7 | 0.00 | 0.00 | 0.00 | 77 | 1004.3 |
| 20260504045350 | 38 | 321 | 0.0 | 0.0 | 0.00 | 0.00 | 0.00 | 68 | 1004.9 |
| 20260504043847 | 38 | 321 | 0.9 | 3.5 | 0.00 | 0.00 | 0.00 | 67 | 1005.1 |
| 20260504042346 | 38 | 321 | 0.0 | 0.0 | 0.00 | 0.00 | 0.00 | 67 | 1005.2 |
| 20260504040846 | 39 | 321 | 0.0 | 0.0 | 0.00 | 0.00 | 0.00 | 67 | 1005.2 |
| 20260504033848 | 40 | 321 | 0.0 | 0.0 | 0.00 | 0.00 | 0.00 | 66 | 1005.2 |
| 20260504032343 | 40 | 321 | 0.0 | 0.0 | 0.00 | 0.00 | 0.00 | 65 | 1005.2 |
| 20260504030843 | 40 | 321 | 0.0 | 0.0 | 0.00 | 0.00 | 0.00 | 65 | 1005.2 |
| 20260504023838 | 41 | 321 | 0.0 | 0.0 | 0.00 | 0.00 | 0.00 | 63 | 1005.4 |
| 20260504022339 | 42 | 321 | 0.0 | 0.0 | 0.00 | 0.00 | 0.00 | 63 | 1005.4 |
| 20260504020840 | 42 | 321 | 0.0 | 0.0 | 0.00 | 0.00 | 0.00 | 61 | 1005.3 |
| 20260504015339 | 43 | 321 | 0.0 | 0.0 | 0.00 | 0.00 | 0.00 | 60 | 1005.2 |
| 20260504013835 | 43 | 321 | 0.0 | 0.0 | 0.00 | 0.00 | 0.00 | 59 | 1005.2 |
| 20260504012335 | 44 | 320 | 0.0 | 0.0 | 0.00 | 0.00 | 0.00 | 58 | 1005.2 |
| 20260504010833 | 44 | 320 | 0.0 | 0.0 | 0.00 | 0.00 | 0.00 | 58 | 1005.2 |
| 20260504003827 | 46 | 320 | 0.0 | 0.0 | 0.00 | 0.00 | 0.00 | 54 | 1005.0 |
| 20260504002327 | 47 | 320 | 0.0 | 0.0 | 0.00 | 0.00 | 0.00 | 51 | 1005.0 |
| 20260504000826 | 47 | 320 | 0.0 | 0.9 | 0.00 | 0.00 | 0.00 | 48 | 1004.9 |
| 20260503235325 | 47 | 320 | 0.9 | 4.3 | 0.00 | 0.00 | 0.00 | 48 | 1004.8 |
| 20260503233824 | 48 | 320 | 0.9 | 5.2 | 0.00 | 0.00 | 0.00 | 47 | 1004.8 |
| 20260503232321 | 48 | 323 | 1.7 | 9.6 | 0.00 | 0.00 | 0.00 | 46 | 1004.7 |
| 20260503230822 | 49 | 299 | 3.5 | 10.4 | 0.00 | 0.00 | 0.00 | 45 | 1004.7 |
| 20260503223823 | 49 | 325 | 3.5 | 9.6 | 0.00 | 0.00 | 0.00 | 43 | 1004.8 |
| 20260503222322 | 50 | 327 | 3.5 | 11.3 | 0.00 | 0.00 | 0.00 | 44 | 1004.8 |
| 20260503220823 | 50 | 323 | 4.3 | 10.4 | 0.00 | 0.00 | 0.00 | 42 | 1004.8 |
| 20260503215322 | 50 | 306 | 3.5 | 10.4 | 0.00 | 0.00 | 0.00 | 44 | 1004.8 |
| 20260503213822 | 50 | 324 | 4.3 | 13.0 | 0.00 | 0.00 | 0.00 | 44 | 1004.9 |
| 20260503210821 | 50 | 331 | 2.6 | 9.6 | 0.00 | 0.00 | 0.00 | 43 | 1004.8 |
| 20260503205320 | 50 | 296 | 5.2 | 11.3 | 0.00 | 0.00 | 0.00 | 44 | 1004.9 |
| 20260503195318 | 50 | 303 | 5.2 | 13.0 | 0.00 | 0.00 | 0.00 | 43 | 1004.9 |
| 20260503193818 | 50 | 288 | 5.2 | 12.2 | 0.00 | 0.00 | 0.00 | 44 | 1004.9 |
| 20260503192319 | 50 | 292 | 3.5 | 10.4 | 0.00 | 0.00 | 0.00 | 44 | 1005.0 |
| 20260503190818 | 50 | 281 | 5.2 | 14.8 | 0.00 | 0.00 | 0.00 | 44 | 1005.0 |
| 20260503185319 | 51 | 306 | 4.3 | 9.6 | 0.00 | 0.00 | 0.00 | 44 | 1004.9 |
| 20260503183818 | 50 | 292 | 5.2 | 12.2 | 0.00 | 0.00 | 0.00 | 44 | 1005.1 |
| 20260503182318 | 51 | 300 | 4.3 | 11.3 | 0.00 | 0.00 | 0.00 | 42 | 1005.1 |
| 20260503175314 | 51 | 275 | 5.2 | 13.0 | 0.00 | 0.00 | 0.00 | 43 | 1005.3 |
| 20260503172314 | 51 | 270 | 4.3 | 13.9 | 0.00 | 0.00 | 0.00 | 44 | 1005.5 |